This demonstration page uses our WeatherBlox Daily Observations layout. Learn more.

Left ArrowRight Arrow

47.50024, -111.30081

Hourly Observations for November 12, 2015

Temp ( °F °C ) Dew Point ( °F °C ) Humidity (%) Winds ( mph kmh ) Pressure ( in mb ) Visibility ( mi km ) Precip ( " mm )
12:53 am 00:53 Clear 27 -2.8 18 -7.8 69 69 SW 14 22 30.20 1023 10 16 0.00 0.00
1:53 am 01:53 Clear 24 -4.4 17 -8.3 75 75 SSW 12 19 30.22 1023 10 16 0.00 0.00
2:53 am 02:53 Clear 28 -2.2 18 -7.8 66 66 SW 14 22 30.22 1023 10 16 0.00 0.00
3:53 am 03:53 Clear 26 -3.3 17 -8.3 69 69 SW 14 22 30.23 1024 10 16 0.00 0.00
4:53 am 04:53 Clear 26 -3.3 16 -8.9 66 66 SW 13 20 30.26 1025 10 16 0.00 0.00
5:53 am 05:53 Clear 26 -3.3 16 -8.9 66 66 SW 13 20 30.27 1025 10 16 0.00 0.00
6:53 am 06:53 Clear 26 -3.3 16 -8.9 66 66 SW 12 19 30.28 1026 10 16 0.00 0.00
7:53 am 07:53 Sunny 26 -3.3 17 -8.3 69 69 SW 12 19 30.31 1026 10 16 0.00 0.00
8:53 am 08:53 Sunny 33 0.6 19 -7.2 56 56 SW 15 24 30.29 1026 10 16 0.00 0.00
9:53 am 09:53 Sunny 38 3.3 18 -7.8 44 44 SW 18 30 30.28 1026 10 16 0.00 0.00
10:53 am 10:53 Sunny 39 3.9 15 -9.4 38 38 WSW 21 33 30.29 1026 10 16 0.00 0.00
11:53 am 11:53 Sunny 40 4.4 16 -8.9 38 38 WSW 20 31 30.26 1025 10 16 0.00 0.00
12:53 pm 12:53 Sunny 41 5 15 -9.4 35 35 SW 21 33 30.22 1024 10 16 0.00 0.00
1:53 pm 13:53 Sunny 41 5 15 -9.4 35 35 WSW 23 37 30.20 1023 10 16 0.00 0.00
2:53 pm 14:53 Sunny 41 5 17 -8.3 38 38 WSW 23 37 30.19 1022 10 16 0.00 0.00
3:53 pm 15:53 Sunny 38 3.3 16 -8.9 41 41 SW 21 33 30.18 1022 10 16 0.00 0.00
4:53 pm 16:53 Sunny 36 2.2 16 -8.9 44 44 SW 15 24 30.17 1022 10 16 0.00 0.00
5:53 pm 17:53 Clear 35 1.7 17 -8.3 48 48 SW 18 30 30.13 1020 10 16 0.00 0.00
6:53 pm 18:53 Clear 37 2.8 18 -7.8 46 46 SW 29 46 30.10 1019 10 16 0.00 0.00
7:53 pm 19:53 Clear 37 2.8 18 -7.8 46 46 SSW 25 41 30.06 1018 10 16 0.00 0.00
8:53 pm 20:53 Clear 38 3.3 17 -8.3 43 43 SW 30 48 30.01 1016 10 16 0.00 0.00
9:53 pm 21:53 Clear 38 3.3 17 -8.3 43 43 SSW 28 44 30.01 1016 10 16 0.00 0.00
10:53 pm 22:53 Clear 40 4.4 18 -7.8 41 41 SSW 30 48 29.99 1016 10 16 0.00 0.00
11:53 pm 23:53 Clear 40 4.4 19 -7.2 43 43 SW 24 39 29.98 1015 10 16 0.00 0.00

Powered by AerisWeather